Time,TemperatureF,DewpointF,PressureIn,WindDirection,WindDirectionDegrees,WindSpeedMPH,WindSpeedGustMPH,Humidity,HourlyPrecipIn,Conditions,Clouds,dailyrainin,SoftwareType,DateUTC
2013-10-16 00:11:00,59.7,57.0,30.09,ESE,107,0.0,0.0,90,0.00,,,0.00,weatherlink.com 1.10,2013-10-16 04:11:00,
2013-10-16 00:26:00,59.9,57.0,30.09,ESE,107,0.0,0.0,90,0.00,,,0.00,weatherlink.com 1.10,2013-10-16 04:26:00,
2013-10-16 00:41:00,59.9,57.0,30.09,ESE,107,0.0,0.0,90,0.00,,,0.00,weatherlink.com 1.10,2013-10-16 04:41:00,
2013-10-16 00:56:00,60.1,57.0,30.09,ESE,107,0.0,0.0,90,0.00,,,0.00,weatherlink.com 1.10,2013-10-16 04:56:00,
2013-10-16 01:11:00,60.2,57.0,30.08,ESE,107,0.0,0.0,89,0.00,,,0.00,weatherlink.com 1.10,2013-10-16 05:11:00,
2013-10-16 01:26:00,60.2,57.0,30.08,ESE,107,0.0,0.0,89,0.00,,,0.00,weatherlink.com 1.10,2013-10-16 05:26:00,
2013-10-16 01:41:00,60.3,57.0,30.07,ESE,107,0.0,0.0,90,0.00,,,0.00,weatherlink.com 1.10,2013-10-16 05:41:00,
2013-10-16 01:56:00,60.2,57.0,30.07,ESE,107,0.0,0.0,90,0.00,,,0.00,weatherlink.com 1.10,2013-10-16 05:56:00,
2013-10-16 02:11:00,60.2,58.0,30.08,ESE,107,0.0,0.0,91,0.00,,,0.00,weatherlink.com 1.10,2013-10-16 06:11:00,
2013-10-16 02:26:00,60.2,57.0,30.08,ESE,107,0.0,0.0,90,0.00,,,0.00,weatherlink.com 1.10,2013-10-16 06:26:00,
2013-10-16 02:41:00,60.2,57.0,30.08,ESE,107,0.0,0.0,89,0.00,,,0.00,weatherlink.com 1.10,2013-10-16 06:41:00,
2013-10-16 02:56:00,60.2,57.0,30.08,ESE,107,0.0,0.0,89,0.00,,,0.00,weatherlink.com 1.10,2013-10-16 06:56:00,
2013-10-16 03:11:00,60.2,57.0,30.08,ESE,107,0.0,0.0,89,0.00,,,0.00,weatherlink.com 1.10,2013-10-16 07:11:00,
2013-10-16 03:26:00,60.2,57.0,30.07,ESE,107,0.0,0.0,90,0.00,,,0.00,weatherlink.com 1.10,2013-10-16 07:26:00,
2013-10-16 03:41:00,60.2,57.0,30.08,ESE,107,0.0,0.0,90,0.00,,,0.00,weatherlink.com 1.10,2013-10-16 07:41:00,
2013-10-16 03:56:00,60.1,57.0,30.07,ESE,107,0.0,0.0,89,0.00,,,0.00,weatherlink.com 1.10,2013-10-16 07:56:00,
2013-10-16 04:11:00,60.0,57.0,30.07,ESE,107,0.0,0.0,89,0.00,,,0.00,weatherlink.com 1.10,2013-10-16 08:11:00,
2013-10-16 04:26:00,59.9,57.0,30.07,ESE,107,0.0,0.0,89,0.00,,,0.00,weatherlink.com 1.10,2013-10-16 08:26:00,
2013-10-16 04:41:00,60.0,57.0,30.07,ESE,107,0.0,0.0,89,0.00,,,0.00,weatherlink.com 1.10,2013-10-16 08:41:00,
2013-10-16 04:56:00,60.0,57.0,30.06,ESE,107,0.0,0.0,89,0.00,,,0.00,weatherlink.com 1.10,2013-10-16 08:56:00,
2013-10-16 05:11:00,60.1,57.0,30.06,ESE,107,0.0,0.0,89,0.00,,,0.00,weatherlink.com 1.10,2013-10-16 09:11:00,
2013-10-16 05:26:00,60.0,57.0,30.06,ESE,107,0.0,0.0,89,0.00,,,0.00,weatherlink.com 1.10,2013-10-16 09:26:00,
2013-10-16 05:41:00,60.1,57.0,30.06,ESE,107,0.0,0.0,90,0.00,,,0.00,weatherlink.com 1.10,2013-10-16 09:41:00,
2013-10-16 05:56:00,60.1,57.0,30.06,ESE,107,0.0,0.0,90,0.00,,,0.00,weatherlink.com 1.10,2013-10-16 09:56:00,
2013-10-16 06:11:00,60.0,57.0,30.06,ESE,107,0.0,0.0,91,0.00,,,0.00,weatherlink.com 1.10,2013-10-16 10:11:00,
2013-10-16 06:26:00,59.9,57.0,30.06,ESE,107,0.0,0.0,91,0.00,,,0.00,weatherlink.com 1.10,2013-10-16 10:26:00,
2013-10-16 06:41:00,59.9,57.0,30.05,ESE,107,0.0,0.0,91,0.00,,,0.00,weatherlink.com 1.10,2013-10-16 10:41:00,
2013-10-16 06:56:00,59.9,58.0,30.05,ESE,107,0.0,0.0,92,0.00,,,0.00,weatherlink.com 1.10,2013-10-16 10:56:00,
2013-10-16 07:11:00,60.0,58.0,30.05,ESE,107,0.0,0.0,93,0.00,,,0.00,weatherlink.com 1.10,2013-10-16 11:11:00,
2013-10-16 07:26:00,60.0,58.0,30.05,ESE,107,0.0,1.0,93,0.00,,,0.00,weatherlink.com 1.10,2013-10-16 11:26:00,
2013-10-16 07:41:00,60.2,59.0,30.05,ESE,107,0.0,2.0,94,0.00,,,0.00,weatherlink.com 1.10,2013-10-16 11:41:00,
2013-10-16 07:56:00,60.3,59.0,30.06,ESE,107,0.0,2.0,94,0.00,,,0.00,weatherlink.com 1.10,2013-10-16 11:56:00,
2013-10-16 08:11:00,60.5,59.0,30.06,ESE,107,0.0,0.0,94,0.00,,,0.00,weatherlink.com 1.10,2013-10-16 12:11:00,
2013-10-16 08:26:00,60.8,59.0,30.07,ESE,107,0.0,2.0,94,0.00,,,0.00,weatherlink.com 1.10,2013-10-16 12:26:00,
2013-10-16 08:41:00,61.1,59.0,30.07,ESE,107,0.0,3.0,94,0.00,,,0.00,weatherlink.com 1.10,2013-10-16 12:41:00,
2013-10-16 08:56:00,61.2,60.0,30.08,ESE,107,0.0,1.0,94,0.00,,,0.00,weatherlink.com 1.10,2013-10-16 12:56:00,
2013-10-16 09:11:00,61.6,60.0,30.07,ESE,115,0.0,3.0,93,0.00,,,0.00,weatherlink.com 1.10,2013-10-16 13:11:00,
2013-10-16 09:26:00,62.0,60.0,30.07,East,90,1.0,2.0,93,0.00,,,0.00,weatherlink.com 1.10,2013-10-16 13:26:00,
2013-10-16 09:41:00,61.8,60.0,30.07,East,88,0.0,4.0,93,0.00,,,0.00,weatherlink.com 1.10,2013-10-16 13:41:00,
2013-10-16 09:56:00,62.5,60.0,30.06,ESE,102,0.0,4.0,92,0.00,,,0.00,weatherlink.com 1.10,2013-10-16 13:56:00,
2013-10-16 10:11:00,62.8,60.0,30.07,ESE,115,1.0,2.0,91,0.00,,,0.00,weatherlink.com 1.10,2013-10-16 14:11:00,
2013-10-16 10:26:00,62.4,60.0,30.06,ESE,115,0.0,3.0,92,0.00,,,0.00,weatherlink.com 1.10,2013-10-16 14:26:00,
2013-10-16 10:41:00,62.7,60.0,30.05,ENE,70,1.0,2.0,92,0.00,,,0.00,weatherlink.com 1.10,2013-10-16 14:41:00,
2013-10-16 10:56:00,63.4,61.0,30.05,ESE,102,1.0,2.0,90,0.00,,,0.00,weatherlink.com 1.10,2013-10-16 14:56:00,
2013-10-16 11:11:00,63.2,60.0,30.05,WNW,290,0.0,2.0,90,0.00,,,0.00,weatherlink.com 1.10,2013-10-16 15:11:00,
2013-10-16 11:26:00,63.7,61.0,30.05,SE,140,2.0,2.0,89,0.00,,,0.00,weatherlink.com 1.10,2013-10-16 15:26:00,
2013-10-16 11:41:00,64.5,61.0,30.04,ESE,120,1.0,4.0,89,0.00,,,0.00,weatherlink.com 1.10,2013-10-16 15:41:00,
2013-10-16 11:57:00,64.6,61.0,30.04,SE,126,0.0,2.0,88,0.00,,,0.00,weatherlink.com 1.10,2013-10-16 15:57:00,
2013-10-16 12:12:00,64.6,61.0,30.04,SSW,209,0.0,0.0,88,0.00,,,0.00,weatherlink.com 1.10,2013-10-16 16:12:00,
2013-10-16 12:27:00,65.0,61.0,30.03,East,97,1.0,4.0,88,0.00,,,0.00,weatherlink.com 1.10,2013-10-16 16:27:00,
2013-10-16 12:42:00,65.9,62.0,30.02,SE,138,1.0,3.0,86,0.00,,,0.00,weatherlink.com 1.10,2013-10-16 16:42:00,
2013-10-16 12:57:00,66.6,62.0,30.02,SE,134,1.0,3.0,86,0.00,,,0.00,weatherlink.com 1.10,2013-10-16 16:57:00,
2013-10-16 13:12:00,65.9,62.0,30.01,ESE,102,2.0,2.0,87,0.00,,,0.00,weatherlink.com 1.10,2013-10-16 17:12:00,
2013-10-16 13:27:00,66.2,62.0,30.00,ESE,102,0.0,3.0,86,0.00,,,0.00,weatherlink.com 1.10,2013-10-16 17:27:00,
2013-10-16 13:42:00,66.5,63.0,30.00,East,97,0.0,2.0,87,0.00,,,0.00,weatherlink.com 1.10,2013-10-16 17:42:00,
2013-10-16 13:57:00,66.5,62.0,30.00,ESE,107,0.0,3.0,86,0.00,,,0.00,weatherlink.com 1.10,2013-10-16 17:57:00,
2013-10-16 14:12:00,66.7,62.0,29.99,SSE,151,0.0,2.0,86,0.00,,,0.00,weatherlink.com 1.10,2013-10-16 18:12:00,
2013-10-16 14:27:00,66.7,62.0,29.99,ESE,107,0.0,2.0,85,0.00,,,0.00,weatherlink.com 1.10,2013-10-16 18:27:00,
2013-10-16 14:42:00,67.2,63.0,29.99,ESE,107,0.0,2.0,87,0.00,,,0.00,weatherlink.com 1.10,2013-10-16 18:42:00,
2013-10-16 14:57:00,67.0,63.0,29.99,ESE,107,0.0,4.0,86,0.00,,,0.00,weatherlink.com 1.10,2013-10-16 18:57:00,
2013-10-16 15:12:00,68.2,63.0,29.98,SSE,165,0.0,5.0,84,0.00,,,0.00,weatherlink.com 1.10,2013-10-16 19:12:00,
2013-10-16 15:27:00,67.8,63.0,29.98,ESE,113,0.0,3.0,85,0.00,,,0.00,weatherlink.com 1.10,2013-10-16 19:27:00,
2013-10-16 15:42:00,67.3,63.0,29.98,ESE,107,0.0,3.0,85,0.00,,,0.00,weatherlink.com 1.10,2013-10-16 19:42:00,
2013-10-16 15:57:00,67.4,63.0,29.97,ESE,102,0.0,5.0,86,0.00,,,0.00,weatherlink.com 1.10,2013-10-16 19:57:00,
2013-10-16 16:12:00,67.0,63.0,29.97,East,97,0.0,4.0,86,0.00,,,0.00,weatherlink.com 1.10,2013-10-16 20:12:00,
2013-10-16 16:27:00,66.7,62.0,29.97,NNW,344,0.0,3.0,86,0.00,,,0.00,weatherlink.com 1.10,2013-10-16 20:27:00,
2013-10-16 16:42:00,66.7,63.0,29.96,East,93,0.0,3.0,87,0.00,,,0.00,weatherlink.com 1.10,2013-10-16 20:42:00,
2013-10-16 16:57:00,66.5,63.0,29.96,SE,134,0.0,2.0,87,0.00,,,0.00,weatherlink.com 1.10,2013-10-16 20:57:00,
2013-10-16 17:12:00,66.4,63.0,29.95,ESE,118,0.0,1.0,88,0.00,,,0.00,weatherlink.com 1.10,2013-10-16 21:12:00,
2013-10-16 17:27:00,66.3,63.0,29.95,East,92,0.0,1.0,89,0.00,,,0.00,weatherlink.com 1.10,2013-10-16 21:27:00,
2013-10-16 17:42:00,66.1,63.0,29.96,East,92,0.0,1.0,88,0.00,,,0.00,weatherlink.com 1.10,2013-10-16 21:42:00,
2013-10-16 17:57:00,65.7,62.0,29.96,SE,140,0.0,2.0,89,0.00,,,0.00,weatherlink.com 1.10,2013-10-16 21:57:00,
2013-10-16 18:12:00,65.2,62.0,29.96,SE,140,0.0,0.0,90,0.00,,,0.00,weatherlink.com 1.10,2013-10-16 22:12:00,
2013-10-16 18:27:00,64.6,62.0,29.96,SE,140,0.0,1.0,91,0.00,,,0.00,weatherlink.com 1.10,2013-10-16 22:27:00,
2013-10-16 18:42:00,64.1,62.0,29.95,NE,52,0.0,1.0,92,0.00,,,0.00,weatherlink.com 1.10,2013-10-16 22:42:00,
2013-10-16 18:57:00,64.0,62.0,29.95,NE,52,0.0,0.0,93,0.00,,,0.00,weatherlink.com 1.10,2013-10-16 22:57:00,
2013-10-16 19:12:00,63.8,62.0,29.95,ENE,58,0.0,2.0,93,0.00,,,0.00,weatherlink.com 1.10,2013-10-16 23:12:00,
2013-10-16 19:27:00,63.7,62.0,29.95,SE,132,0.0,2.0,94,0.00,,,0.00,weatherlink.com 1.10,2013-10-16 23:27:00,
2013-10-16 19:42:00,63.7,62.0,29.95,SE,132,0.0,1.0,94,0.00,,,0.00,weatherlink.com 1.10,2013-10-16 23:42:00,
2013-10-16 19:57:00,63.6,62.0,29.95,ESE,122,0.0,0.0,94,0.00,,,0.00,weatherlink.com 1.10,2013-10-16 23:57:00,
2013-10-16 20:12:00,63.3,62.0,29.95,ESE,122,0.0,0.0,95,0.00,,,0.00,weatherlink.com 1.10,2013-10-17 00:12:00,
2013-10-16 20:27:00,62.9,62.0,29.96,ESE,122,0.0,0.0,95,0.00,,,0.00,weatherlink.com 1.10,2013-10-17 00:27:00,
2013-10-16 20:42:00,62.6,62.0,29.96,ESE,122,0.0,0.0,96,0.00,,,0.00,weatherlink.com 1.10,2013-10-17 00:42:00,
2013-10-16 20:57:00,62.5,61.0,29.96,ESE,122,0.0,0.0,96,0.00,,,0.00,weatherlink.com 1.10,2013-10-17 00:57:00,
2013-10-16 21:12:00,62.4,61.0,29.96,ESE,122,0.0,0.0,96,0.00,,,0.00,weatherlink.com 1.10,2013-10-17 01:12:00,
2013-10-16 21:27:00,62.5,62.0,29.96,ESE,122,0.0,0.0,97,0.00,,,0.00,weatherlink.com 1.10,2013-10-17 01:27:00,
2013-10-16 21:42:00,62.6,62.0,29.96,ESE,122,0.0,0.0,97,0.00,,,0.00,weatherlink.com 1.10,2013-10-17 01:42:00,
2013-10-16 21:57:00,62.3,62.0,29.96,SSE,165,0.0,0.0,97,0.00,,,0.00,weatherlink.com 1.10,2013-10-17 01:57:00,
2013-10-16 22:12:00,62.1,61.0,29.96,SSE,165,0.0,0.0,97,0.00,,,0.00,weatherlink.com 1.10,2013-10-17 02:12:00,
2013-10-16 22:27:00,62.1,61.0,29.95,SSE,165,0.0,0.0,97,0.00,,,0.00,weatherlink.com 1.10,2013-10-17 02:27:00,
2013-10-16 22:42:00,61.9,61.0,29.96,SSE,165,0.0,0.0,97,0.00,,,0.00,weatherlink.com 1.10,2013-10-17 02:42:00,
2013-10-16 22:57:00,61.5,61.0,29.95,SSE,165,0.0,0.0,97,0.00,,,0.00,weatherlink.com 1.10,2013-10-17 02:57:00,
2013-10-16 23:12:00,61.4,61.0,29.95,SSE,165,0.0,0.0,97,0.00,,,0.00,weatherlink.com 1.10,2013-10-17 03:12:00,
2013-10-16 23:27:00,61.2,61.0,29.94,SSE,165,0.0,0.0,98,0.00,,,0.00,weatherlink.com 1.10,2013-10-17 03:27:00,
2013-10-16 23:42:00,61.0,61.0,29.93,SSE,165,0.0,0.0,98,0.00,,,0.00,weatherlink.com 1.10,2013-10-17 03:42:00,
2013-10-16 23:57:00,60.5,60.0,29.94,SSE,165,0.0,0.0,98,0.00,,,0.00,weatherlink.com 1.10,2013-10-17 03:57:00,